Regional Weather Roundup
Issued by NWS

Home | Current Version | Previous Version | Graphics & Text | Print | Product List | Glossary On
Versions: 1 2 3 4 5 6 7 8 9 10 11 12 13 14 15 16 17 18 19 20 21 22 23 24 25 26 27 28 29 30 31 32 33 34 35 36 37 38 39 40 41 42 43 44 45 46 47 48 49 50
000
ASUS43 KMPX 230401
RWRMN
WEATHER ROUNDUP FOR MINNESOTA
NATIONAL WEATHER SERVICE TWIN CITIES/CHANHASSEN MN
1100 PM CDT WED MAR 22 2017


NOTE: "FAIR" INDICATES FEW OR NO CLOUDS BELOW 12,000 FEET WITH NO
SIGNIFICANT WEATHER AND/OR OBSTRUCTIONS TO VISIBILITY. N/A MEANS
CURRENT SKY AND/OR WEATHER CONDITIONS ARE NOT AVAILABLE.

MNZ060>063-068>070-230500-
   Twin Cities Metro

CITY           SKY/WX    TMP DP  RH WIND       PRES   REMARKS
TWIN CITIES    CLOUDY    38  14  37 SE17      30.29F
ST PAUL        CLOUDY    37  15  40 SE13      30.31F
CRYSTAL        CLOUDY    37  12  35 SE12      30.27F
BLAINE         CLOUDY    39  12  33 SE13      30.28F
LAKEVILLE      CLOUDY    34  19  55 SE7       30.28S WCI  28
EDEN PRAIRIE   CLOUDY    38  15  39 SE15      30.26F
SOUTH ST PAUL  CLOUDY    37  13  36 SE5       30.30S
LAKE ELMO      CLOUDY    36  14  41 SE6       30.31S
$$
MNZ001>005-007-008-013>017-022>024-027-028-230500-
   Northwest Minnesota

CITY           SKY/WX    TMP DP  RH WIND       PRES   REMARKS
BEMIDJI        CLOUDY    32  14  47 SE20      30.14F WCI  20
HALLOCK        CLOUDY    32  25  74 S15       30.07F WCI  22
ROSEAU         CLOUDY    32  25  74 S10       30.11S WCI  24
WARROAD        CLOUDY    30  25  80 SE12G17   30.13F WCI  21
THIEF RVR FALL   N/A    N/A N/A N/A MISG        N/A
CROOKSTON      CLOUDY    34  23  64 S17       30.10F WCI  23
FOSSTON        CLOUDY    30  18  59 SE14G20   30.11S WCI  20
DETROIT LAKES  MOCLDY    32  23  69 S17G25    30.12S WCI  21
MOORHEAD       CLOUDY    34  23  64 S21G29    30.10F WCI  22
PARK RAPIDS    CLOUDY    33  17  51 SE20G25   30.15F WCI  21
MAHNOMEN       CLOUDY    32  21  62 S20G29    30.09F WCI  21
$$
MNZ006-009>011-018-025>026-230500-
   North Central Minnesota

CITY           SKY/WX    TMP DP  RH WIND       PRES   REMARKS
BAUDETTE       CLOUDY    29  22  75 SE13      30.15F WCI  19
FLAG ISLAND    CLOUDY    28  19  69 S18       30.14S WCI  16
INTL FALLS     CLOUDY    33  11  39 S12G23    30.20F WCI  24
WASKISH        CLOUDY    30  21  69 SE9       30.16F WCI  22
BIG FORK       CLOUDY    34  16  47 S14G21    30.20F WCI  24
LONGVILLE      CLOUDY    34  16  47 SE14G24   30.19F WCI  24
GRAND RAPIDS   CLOUDY    31  18  58 SE7       30.25F WCI  24
CRANE LAKE     CLOUDY    30   9  40 SE3       30.27F
ORR            CLOUDY    30  10  43 SE5       30.22S WCI  25
COOK           CLOUDY    30  12  47 SE5       30.26S WCI  25
WALKER         CLOUDY    32  16  51 SE9G21    30.17F WCI  24
$$
MNZ012-019>021-037-230500-
   Northeast Minnesota

CITY           SKY/WX    TMP DP  RH WIND       PRES   REMARKS
DULUTH         CLOUDY    28  20  71 E9        30.30F WCI  19
ELY            CLOUDY    25  14  63 SE13      30.28F WCI  13
HIBBING        CLOUDY    28  15  58 SE13G20   30.27S WCI  17
EVELETH        PTCLDY    30  10  44 SE9G17    30.29S WCI  22
DULUTH HARBOR  CLOUDY    30  25  80 CALM      30.35S
TWO HARBORS    PTCLDY    30  23  74 E8        30.32F WCI  23
SILVER BAY     MOCLDY    27  21  80 E6        30.33F WCI  20
GRAND MARAIS     N/A     26  16  65 NE5       30.40F WCI  20
G MARAIS ARPRT CLOUDY    18  10  73 E3        30.32F
$$
MNZ029>031-032-039>041-046>048-054>057-064-230500-
   West Central Minnesota

CITY           SKY/WX    TMP DP  RH WIND       PRES   REMARKS
FERGUS FALLS   CLOUDY    34  21  60 S21       30.16F WCI  22
WHEATON        CLOUDY    36  25  64 SE21G29   30.13F
MORRIS         CLOUDY    36  23  60 SE22      30.13F
ALEXANDRIA     CLOUDY    33  22  63 SE15G25   30.16F WCI  23
ELBOW LAKE     CLOUDY    34  23  63 E23       30.13F WCI  22
WADENA         CLOUDY    32  21  64 SE14      30.15F WCI  22
GLENWOOD       CLOUDY    34  21  60 SE16G24   30.17F WCI  23
APPLETON       CLOUDY    37  25  60 SE16G23   30.14F
BENSON         CLOUDY    37  19  48 S13G20    30.18S
ORTONVILLE     CLOUDY    34  25  69 SE17G23   30.11F WCI  23
MADISON        CLOUDY    37  28  70 SE15      30.13F
WILLMAR        CLOUDY    37  25  60 SE18      30.19F
$$
MNZ033>034-036-042>043-049>051-058-059-230500-
   Central Minnesota

CITY           SKY/WX    TMP DP  RH WIND       PRES   REMARKS
ST CLOUD       CLOUDY    35  16  45 SE13      30.23F WCI  26
SAUK CENTRE    CLOUDY    33  21  62 SE14G21   30.19S WCI  23
PAYNESVILLE      N/A     35  22  60 SE12G18   30.21S WCI  27
AITKIN         CLOUDY    36  16  44 S14       30.23F
PINE RIVER     CLOUDY    32  19  59 SE10G18   30.22F WCI  24
BRAINERD       CLOUDY    33  16  49 SE10      30.21F WCI  25
STAPLES        CLOUDY    32  18  55 SE14G20   30.18F WCI  22
LONG PRAIRIE   CLOUDY    32  21  64 E14       30.19F WCI  22
LITTLE FALLS   CLOUDY    34  18  51 SE9G18    30.21F WCI  26
LITCHFIELD     CLOUDY    37  23  56 SE12      30.22S
BUFFALO        CLOUDY    36  16  43 SE9       30.26S
MAPLE LAKE     CLOUDY    37  21  53 SE10      30.25S
HUTCHINSON     CLOUDY    36  25  64 SE12G17   30.23F
$$
MNZ037-044-045-052-053-230500-
   East Central Minnesota

CITY           SKY/WX    TMP DP  RH WIND       PRES   REMARKS
PRINCETON      CLOUDY    37  12  35 SE8       30.26F
MORA           CLOUDY    34  14  44 SE5       30.30F WCI  30
CAMBRIDGE      CLOUDY    37  19  48 SE6       30.27F
RUSH CITY      CLOUDY    35  13  41 SE7       30.30F WCI  29
MOOSE LAKE     CLOUDY    34  12  40 SE5       30.28F WCI  30
HINCKLEY       CLOUDY    34  14  44 SE6       30.30F WCI  29
CLOQUET        CLOUDY    28  18  64 E3        30.29F
MCGREGOR       CLOUDY    34  14  44 S10G20    30.27F WCI  26
$$
MNZ071>073-080-081-089-090-097-098-230500-
   Southwest Minnesota

CITY           SKY/WX    TMP DP  RH WIND       PRES   REMARKS
MONTEVIDEO     CLOUDY    36  25  64 S14G24    30.17F
GRANITE FALLS  CLOUDY    37  27  67 SE17      30.18F
CANBY          CLOUDY    38  28  67 SE14G20   30.13F
MARSHALL       CLOUDY    37  25  61 S21       30.14F
REDWOOD FALLS  CLOUDY    36  23  59 SE20G26   30.18F
OLIVIA         CLOUDY    36  23  60 SE17G23   30.18F
PIPESTONE      CLOUDY    36  21  55 S18G25    30.09F
WINDOM         MOCLDY    37  23  56 SE14G23   30.17F
WORTHINGTON    PTCLDY    36  23  59 SE14      30.16S
JACKSON        CLOUDY    36  25  64 SE14G21   30.18F
TRACY          CLOUDY    37  27  69 S16       30.15S
SLAYTON        CLOUDY    34  26  74 SE17G23   30.14F WCI  23
$$
MNZ065>067-074>077-082>085-091>093-230500-
   South Central Minnesota

CITY           SKY/WX    TMP DP  RH WIND       PRES   REMARKS
MANKATO        CLOUDY    36  22  56 SE17      30.24F
NEW ULM        CLOUDY    36  21  55 SE13G20   30.22F
ST JAMES       CLOUDY    36  25  64 SE16G22   30.22F
FAIRMONT       CLOUDY    36  23  59 SE21      30.20F
GLENCOE        CLOUDY    37  25  62 SE12      30.23F
FARIBAULT      CLOUDY    37  19  48 SE12      30.28S
OWATONNA       CLOUDY    37  18  44 SE13      30.27S
WASECA         CLOUDY    36  23  60 SE13      30.27F
ALBERT LEA     CLOUDY    36  19  51 SE18      30.26F
$$
MNZ078>079-086>088-094>096-230500-
   Southeast Minnesota

CITY           SKY/WX    TMP DP  RH WIND       PRES   REMARKS
ROCHESTER      CLOUDY    34  19  54 SE15      30.29F WCI  24
RED WING       CLOUDY    37   9  30 SE12      30.31F
STANTON        CLOUDY    37  18  46 SE6       30.28S
DODGE CENTER   CLOUDY    34  21  60 SE16      30.27S WCI  23
WINONA         CLOUDY    36  14  41 SE10      30.34F
AUSTIN         CLOUDY    36  19  51 SE12G18   30.29R
PRESTON        CLOUDY    34  15  45 SE10      30.31F WCI  26
$$
ABBREVIATIONS USED IN REMARKS
   TC - TEMPERATURES IN CELSIUS
  WCI - WIND CHILL INDEX
   HX - HEAT INDEX
  VSB - VISIBILITY
$$




USA.gov is the U.S. government's official web portal to all federal, state and local government web resources and services.